CorriColonna
Classifica best Uomini al 2018

Colonna | 10,000 Km



Classifica best Donne al 2018 | La gara negli anni

Classifica composta da 235 atleti.

N. Pos.
in %
Tot.
Ediz.
Foto Runner Cat. Tempo min/
Km
Edizione
1 0% 2 Moccia Andrea SM50 00:34:51 3:29 2011
2 1% 4 Oronzini Alessandro SM35 00:34:56 3:29 2011
3 1% 1 Argentieri Giovanni SM 00:35:34 3:33 2016
4 2% 1 Simongini Carlo SM50 00:35:43 3:34 2015
5 2% 1 Indelicato Marco SM45 00:36:25 3:38 2017
6 3% 4 Cardellini Nicola SM40 00:36:27 3:38 2017
7 3% 2 Murolo Marco SM35 00:36:29 3:38 2015
8 3% 7 Geraldini Piergianni SM 00:36:40 3:40 2015
9 4% 2 Tramontano Gennaro SM35 00:36:41 3:40 2015
10 4% 8 Mazzoli Angelo SM40 00:36:45 3:40 2011
11 5% 6 Arrigoni Manuel SM35 00:36:49 3:40 2014
12 5% 3 Del Negro Roberto SM40 00:37:22 3:44 2017
13 6% 1 Galbani Riccardo SM 00:37:23 3:44 2012
14 6% 4 Fargione Vincenzo SM50 00:37:26 3:44 2014
15 6% 3 Mittoni Alberto SM45 00:37:42 3:46 2017
16 7% 2 Denguir Mourad SM45 00:37:54 3:47 2012
17 7% 2 Polverino Vittorio SM35 00:38:23 3:50 2016
18 8% 1 Brilli Fabrizio SM 00:38:30 3:51 2013
19 8% 1 Nigri Umberto SM45 00:38:40 3:52 2017
20 9% 8 Leoncini Claudio SM45 00:38:50 3:53 2014
21 9% 4 Bignami Valter SM45 00:38:53 3:53 2011
22 9% 5 Di Liberto Lorenzo SM40 00:38:55 3:53 2014
23 10% 2 Lutri Stefano SM50 00:39:00 3:54 2011
24 10% 1 D'amico - 72 Roberto SM40 00:39:06 3:54 2012
25 11% 2 Giannini Daniele SM45 00:39:18 3:55 2015
26 11% 2 Cherubini Leonardo SM45 00:39:18 3:55 2011
27 11% 2 Perna Dario SM45 00:39:44 3:58 2014
28 12% 1 Marsili Fausto SM55 00:39:55 3:59 2015
29 12% 4 Zingariello Gerardo SM45 00:39:56 3:59 2016
30 13% 1 Cucchi Simone SM35 00:39:58 3:59 2018
31 13% 1 Dos Santos Galvao Mario Rogerio SM 00:39:59 3:59 2012
32 14% 4 Litta Francesco SM40 00:40:02 4:00 2016
33 14% 1 Mansueti Renzo SM45 00:40:03 4:00 2014
34 14% 7 Farina Ignazio Stefano SM50 00:40:14 4:01 2014
35 15% 6 Cacciani Andrea SM40 00:40:15 4:01 2014
36 15% 2 Formai Riccardo SM45 00:40:21 4:02 2018
37 16% 2 Polinari Simone SM35 00:40:24 4:02 2017
38 16% 1 Bizzarri Nicola SM40 00:40:32 4:03 2017
39 17% 1 Latini Roberto SM40 00:40:41 4:04 2011
40 17% 5 Trinca Riccardo SM35 00:40:46 4:04 2014
41 17% 3 De Palo Nicola SM35 00:40:50 4:05 2015
42 18% 5 Huza Marius Razvan SM35 00:40:52 4:05 2018
43 18% 5 Pacciani Stefano SM45 00:40:53 4:05 2016
44 19% 2 De Iulis Stefano SM45 00:41:07 4:06 2013
45 19% 6 Castellana Leone SM60 00:41:09 4:06 2014
46 20% 1 Piccardi Paolo SM35 00:41:24 4:08 2016
47 20% 1 Gessi Carlo SM45 00:41:27 4:08 2012
48 20% 5 Renzulli Raffaele SM35 00:41:34 4:09 2015
49 21% 1 Sannia Riccardo SM50 00:41:35 4:09 2018
50 21% 1 Martolini Alberto SM35 00:41:36 4:09 2011
51 22% 4 Zanzot Paolo SM40 00:41:42 4:10 2011
52 22% 1 Giovanale Luigi SM45 00:41:42 4:10 2014
53 23% 3 Mascaro Antonio SM50 00:41:59 4:11 2017
54 23% 1 Fabi Stefano SM40 00:42:08 4:12 2014
55 23% 5 Scalabrin Sandro SM50 00:42:11 4:13 2013
56 24% 1 Tortoreto Luca SM40 00:42:11 4:13 2011
57 24% 1 Salvatore Marco SM40 00:42:15 4:13 2018
58 25% 1 Finesi Ferdinando SM45 00:42:19 4:13 2011
59 25% 1 Longo Pietro Maria SM55 00:42:19 4:13 2012
60 26% 1 Salvatori Giuseppe SM35 00:42:26 4:14 2011
61 26% 1 Papa Antonio SM35 00:42:37 4:15 2011
62 26% 3 Russo Raffaele SM40 00:42:39 4:15 2018
63 27% 6 Cerioni Carlo SM45 00:42:39 4:15 2017
64 27% 2 Cocciolo Andrea SM40 00:42:41 4:16 2012
65 28% 5 Polli Giovanni SM55 00:42:44 4:16 2011
66 28% 2 Giambra Sandro SM50 00:42:56 4:17 2013
67 29% 2 Scultz Gualtiero SM55 00:42:56 4:17 2017
68 29% 6 Monti Massimiliano SM50 00:43:04 4:18 2014
69 29% 1 Localzo Marco SM50 00:43:06 4:18 2016
70 30% 1 Tanzillo Raffaele SM40 00:43:16 4:19 2018
71 30% 1 Arigoni Alessandro SM35 00:43:21 4:20 2011
72 31% 1 Pierantozzi Fabio SM35 00:43:28 4:20 2011
73 31% 6 Cardellini Claudio SM55 00:43:32 4:21 2011
74 31% 2 Orsini Dianeo SM45 00:43:33 4:21 2012
75 32% 1 Russo Salvatore SM55 00:43:46 4:22 2018
76 32% 1 Cittadini Fabio SM35 00:44:01 4:24 2017
77 33% 1 Tumino Marcello SM50 00:44:07 4:24 2018
78 33% 1 Pascali Maurizio SM40 00:44:08 4:24 2011
79 34% 2 Marchese Giovanni SM55 00:44:08 4:24 2018
80 34% 1 Marini Fabrizio SM40 00:44:12 4:25 2012
81 34% 2 Del Borrello Vincenzo SM50 00:44:13 4:25 2018
82 35% 1 Picardi Angelo SM50 00:44:14 4:25 2017
83 35% 6 Pica Carlo Alberto SM45 00:44:19 4:25 2012
84 36% 7 Galasso Paolo SM50 00:44:22 4:26 2015
85 36% 1 Verdesca Massimo SM50 00:44:30 4:27 2012
86 37% 3 Toppano Andrea SM50 00:44:32 4:27 2018
87 37% 5 Zampetti Maurizio SM45 00:44:34 4:27 2018
88 37% 1 Ferrante Giancarlo SM50 00:44:36 4:27 2013
89 38% 6 Castellano Ferruccio SM40 00:44:46 4:28 2011
90 38% 1 Pavone Paolo SM40 00:44:47 4:28 2013
91 39% 1 Rotondo Gian Marco SM35 00:45:01 4:30 2011
92 39% 3 Di Massimo Antonio SM50 00:45:02 4:30 2017
93 40% 4 Frazzini Enzo SM55 00:45:06 4:30 2014
94 40% 4 Peroni Bruno SM40 00:45:06 4:30 2015
95 40% 1 Polverini Andrea SM45 00:45:09 4:30 2018
96 41% 2 Monti Giuseppe SM50 00:45:13 4:31 2012
97 41% 6 Nardecchia Claudio SM65 00:45:22 4:32 2017
98 42% 4 Biocco Franco SM55 00:45:26 4:32 2018
99 42% 1 Pavone Andrea SM40 00:45:28 4:32 2016
100 43% 4 Cozzi Luigi SM40 00:45:33 4:33 2011
101 43% 1 Polidori Marziano SM55 00:45:37 4:33 2011
102 43% 8 Cacchioni Antonio SM45 00:45:39 4:33 2012
103 44% 1 Borelli Augusto SM45 00:45:58 4:35 2011
104 44% 1 Grossi Alessandro SM40 00:46:05 4:36 2014
105 45% 1 Parisi Luca Michele SM40 00:46:08 4:36 2017
106 45% 1 Pileri Andrea SM40 00:46:10 4:37 2015
107 46% 6 Gambini Marco SM45 00:46:14 4:37 2015
108 46% 1 Erasmi Emidio SM50 00:46:24 4:38 2011
109 46% 1 Priggione Matte' Luca SM40 00:46:26 4:38 2017
110 47% 2 Graziani Italo SM55 00:46:30 4:39 2014
111 47% 2 Maurizi Massimo SM50 00:46:31 4:39 2011
112 48% 6 Budoni Carlo SM55 00:46:34 4:39 2017
113 48% 1 De Santis Alessandro Vittorio SM45 00:46:34 4:39 2014
114 49% 1 Forte Luca SM50 00:46:35 4:39 2018
115 49% 2 Calio' Franco SM45 00:46:46 4:40 2011
116 49% 4 Fiore Paolo SM50 00:46:46 4:40 2018
117 50% 3 Caputo Antonio SM45 00:46:48 4:40 2015
118 50% 1 Carlucci Fabio SM40 00:46:53 4:41 2014
119 51% 1 Amore Marco SM 00:46:54 4:41 2013
120 51% 1 Saturnino Andrea SM35 00:46:55 4:41 2011
121 51% 4 Lai Adriano SM55 00:46:58 4:41 2012
122 52% 1 Vitulli Flaviano SM35 00:47:00 4:42 2011
123 52% 1 Francisci Fabio SM55 00:47:08 4:42 2018
124 53% 2 Grottaroli Mauro SM50 00:47:14 4:43 2018
125 53% 1 Barone Marco SM40 00:47:16 4:43 2013
126 54% 1 Carboni Francesco SM 00:47:17 4:43 2017
127 54% 6 Abate Fabrizio SM45 00:47:21 4:44 2015
128 54% 1 Longo Tommaso SM50 00:47:27 4:44 2012
129 55% 5 Micheletti Davide SM50 00:47:29 4:44 2014
130 55% 1 Agabiti Marco SM40 00:47:32 4:45 2016
131 56% 8 Battisti Massimo SM65 00:47:34 4:45 2011
132 56% 1 Caiazzi Mauro SM55 00:47:37 4:45 2011
133 57% 1 Baracaia Giampaolo SM45 00:47:45 4:46 2013
134 57% 2 Cavarra Marco SM45 00:47:45 4:46 2018
135 57% 1 Centurion Aznaran Carlos Alberto SM35 00:47:47 4:46 2016
136 58% 2 Giombini Fabio SM55 00:48:01 4:48 2016
137 58% 2 Calabresi Andrea SM40 00:48:10 4:49 2016
138 59% 1 Papeo Pasquale Antonio SM45 00:48:19 4:49 2017
139 59% 2 Cerasa Giuseppe SM65 00:48:20 4:50 2014
140 60% 2 Ceccarelli Mauro SM45 00:48:27 4:50 2012
141 60% 5 Orlandi Giuseppe SM50 00:48:28 4:50 2014
142 60% 1 Giammari Giorgio SM50 00:48:31 4:51 2015
143 61% 5 Tripodi Enzo Maria SM45 00:48:35 4:51 2013
144 61% 1 Alessandroni Andrea SM 00:48:36 4:51 2012
145 62% 2 Duma Eugenio SM50 00:48:36 4:51 2013
146 62% 4 Rizzardi Flavio SM45 00:48:44 4:52 2012
147 63% 1 Scarlato Michele SM55 00:48:47 4:52 2016
148 63% 2 Iuliano Agostino SM40 00:48:52 4:53 2011
149 63% 1 Brunori Fabio SM 00:48:55 4:53 2011
150 64% 1 Viglialoro Giuseppe SM45 00:49:16 4:55 2012
151 64% 1 Passa Corrado SM45 00:49:18 4:55 2016
152 65% 1 Gambacorta Mauro SM55 00:49:20 4:56 2011
153 65% 1 Pierantozzi Massimo SM40 00:49:20 4:56 2016
154 66% 2 Lobrace Gaetano SM60 00:49:22 4:56 2017
155 66% 2 Vitello Francesco SM55 00:49:24 4:56 2012
156 66% 1 Nulli Alessandro SM40 00:49:50 4:59 2018
157 67% 1 Balestro Luca SM35 00:49:56 4:59 2013
158 67% 2 Nanni Gregorio SM60 00:50:00 5:00 2018
159 68% 5 Passa Maurizio SM45 00:50:02 5:00 2016
160 68% 1 Camusso Claudio SM35 00:50:05 5:00 2013
161 69% 2 Toni Federico SM65 00:50:07 5:00 2013
162 69% 1 D'ambrosio Mario SM50 00:50:11 5:01 2011
163 69% 3 Di Filippo Pietro SM45 00:50:14 5:01 2011
164 70% 4 Iacovacci Giorgio SM65 00:50:20 5:02 2012
165 70% 1 Manili Domenico SM50 00:50:21 5:02 2015
166 71% 1 Giusti Luciano SM55 00:50:22 5:02 2011
167 71% 6 Veroli Alessandro SM35 00:50:27 5:02 2015
168 71% 3 Deidda Mauro SM40 00:50:28 5:02 2016
169 72% 5 Zuppello Valter SM65 00:50:34 5:03 2013
170 72% 2 Del Vecchio Giuseppe SM40 00:50:38 5:03 2011
171 73% 1 Ponzi Sandro SM55 00:50:39 5:03 2011
172 73% 1 Tedesco Pietro SM40 00:50:44 5:04 2012
173 74% 2 Coco Angelo SM60 00:50:53 5:05 2012
174 74% 3 Maggi Tiziano SM40 00:50:54 5:05 2015
175 74% 1 Cavalli Umberto SM50 00:50:55 5:05 2011
176 75% 5 Dell'Abate Romolo SM55 00:50:56 5:05 2014
177 75% 1 Liccardi Aldo SM45 00:51:05 5:06 2011
178 76% 2 Pavia Saverio SM40 00:51:20 5:08 2012
179 76% 5 Iannucci Vittorio SM60 00:51:24 5:08 2015
180 77% 2 Salis Piero SM60 00:51:28 5:08 2016
181 77% 2 Costabile Aldo SM60 00:51:28 5:08 2011
182 77% 3 Mattiacci Massimiliano SM45 00:51:31 5:09 2018
183 78% 2 Bonassisa Alfonso SM60 00:51:34 5:09 2017
184 78% 4 Leo Stefano SM50 00:51:39 5:09 2014
185 79% 5 D'Amico Roberto SM60 00:51:50 5:11 2015
186 79% 1 Mele Paolo Fidel SM45 00:51:51 5:11 2013
187 80% 1 Boscariol Federico SM35 00:51:56 5:11 2015
188 80% 5 Pugliese Sergio SM55 00:51:56 5:11 2014
189 80% 6 Lattanzi Andrea SM65 00:52:08 5:12 2013
190 81% 1 Spaziani Raniero SM35 00:52:17 5:13 2016
191 81% 1 Pelonara Gino SM70 00:52:19 5:13 2015
192 82% 1 Zaghini Giuseppe SM45 00:52:25 5:14 2018
193 82% 2 Lemasle Pascal SM45 00:52:26 5:14 2015
194 83% 2 Salzano Luciano SM55 00:52:32 5:15 2017
195 83% 1 Mauro Aniello SM40 00:52:41 5:16 2011
196 83% 2 Ruschioni Ugo SM35 00:52:42 5:16 2013
197 84% 2 Claroni Giulio SM50 00:52:42 5:16 2015
198 84% 2 Manca Romano SM50 00:53:00 5:18 2012
199 85% 1 Circhetta Carlo SM50 00:53:22 5:20 2014
200 85% 5 Celli Marco SM50 00:53:35 5:21 2015
201 86% 3 Castaldi Giovanni SM65 00:53:46 5:22 2012
202 86% 1 Carfagna Claudio SM40 00:53:58 5:23 2014
203 86% 3 Lucheroni Fabio SM50 00:54:04 5:24 2016
204 87% 1 Masin Osvaldo SM60 00:54:16 5:25 2011
205 87% 1 Carotenuto Salvatore SM35 00:54:17 5:25 2017
206 88% 1 Morici Alberto SM55 00:54:52 5:29 2014
207 88% 4 Fantozzi Angelo SM60 00:54:53 5:29 2015
208 89% 1 Fedele Paolo SM50 00:54:59 5:29 2011
209 89% 2 Bissattini Stefano SM60 00:55:01 5:30 2017
210 89% 1 De Stefanis Antonio SM55 00:55:07 5:30 2011
211 90% 2 Di Iorio Michele Matteo SM55 00:55:35 5:33 2011
212 90% 1 Perillo Francesco SM45 00:55:42 5:34 2018
213 91% 5 Gianni Vincenzo SM60 00:55:46 5:34 2013
214 91% 1 Segoni Fabio SM50 00:55:49 5:34 2011
215 91% 3 Succu Giuseppe SM80 00:55:56 5:35 2012
216 92% 3 Ienni Marco SM 00:56:06 5:36 2013
217 92% 2 Della Valle Andrea SM55 00:56:09 5:36 2011
218 93% 1 Sangiovanni Vincent. Alberto Luigi SM65 00:56:12 5:37 2013
219 93% 3 Barrella Giuseppe SM55 00:56:17 5:37 2012
220 94% 2 Satta Riccardo SM50 00:56:50 5:41 2011
221 94% 2 Paolino Giuseppe SM45 00:58:20 5:50 2017
222 94% 3 Magnano Francesco SM45 01:00:26 6:02 2012
223 95% 1 Verduchi Marco SM45 01:00:29 6:02 2012
224 95% 1 Ielo Santo SM50 01:01:07 6:06 2011
225 96% 1 Cascetti Franco SM65 01:01:23 6:08 2012
226 96% 1 Pasanisi Alessandro SM 01:01:37 6:09 2011
227 97% 2 Macci Daniele SM35 01:01:52 6:11 2014
228 97% 3 Angelini Fabrizio SM65 01:03:13 6:19 2015
229 97% 1 Pediconi Francesco Maria SM60 01:03:43 6:22 2013
230 98% 1 Meniconi Massimo SM50 01:04:16 6:25 2012
231 98% 1 Violante Sebastiano SM40 01:04:51 6:29 2018
232 99% 3 De Bonis Leandro SM60 01:05:32 6:33 2013
233 99% 2 Lamberti Giorgio SM65 01:05:37 6:33 2013
234 100% 3 Kamaris Costantino SM60 01:06:49 6:40 2013
235 100% 1 Roscetti Sandro SM65 01:13:41 7:22 2012

Ver: 3.16 | cecadm